Notices

What's New in latest Release from April 7th, 2021:

- Updated Glossary, including Speed of Maximum Gust, and Total Hourly Precipitation

- Updated national and regional climate services offices contacts and prices information

- Addition of station inventory lists for 1981-2010, 1971-2000, and 1961-1990 Normals.

If you haven't already, please take our survey and provide feedback about our website: https://eccc.sondage-survey.ca/f/LanguageSelection.aspx?s=442ca660-fcf1-47c0-95a9-59707d6fd709

Hourly Data Report for October 22, 2019

CARBERRY CS
MANITOBA
Current Station Operator: ECCC - MSC

49°54'20.900" N
99°21'26.800" W
383.50 m
5010547
71170
WZE

Download Data

Hourly Data (October 2019)
Hourly Data Report for October 22, 2019
TIME
LST
Temp Definition
°C
Dew Point Definition
°C
Rel Hum Definition
%
Precip. Amount Definition
mm

Wind Dir Definition
10's deg

Wind Spd Definition
km/h
Visibility Definition
km
Stn Press Definition
kPa
Hmdx Definition


Wind Chill Definition


Weather Definition


00:00 0.8 -2.5 79 0.0 34 21   96.61     LegendNANA
01:00 0.4 -2.4 82 0.0 34 19   96.59     LegendNANA
02:00 0.5 -1.7 86 0.0 33 22   96.55     LegendNANA
03:00 -0.9 -2.4 90 0.0 31 16   96.51   -6 LegendNANA
04:00 0.6 -2.1 82 0.0 34 23   96.48     LegendNANA
05:00 0.4 -2.6 80 0.0 33 20   96.45     LegendNANA
06:00 0.5 -2.7 79 0.0 33 24   96.43     LegendNANA
07:00 0.1 -3.2 78 0.0 33 22   96.40     LegendNANA
08:00 0.5 -3.6 74 0.0 34 25   96.39     LegendNANA
09:00 1.7 -3.9 66 0.0 33 33   96.35     LegendNANA
10:00 2.7 -3.9 62 0.0 33 34   96.33     LegendNANA
11:00 3.7 -4.0 57 0.0 34 31   96.32     LegendNANA
12:00 4.1 -4.5 53 0.0 34 31   96.28     LegendNANA
13:00 4.7 -4.2 52 0.0 35 31   96.25     LegendNANA
14:00 4.7 -4.1 53 0.0 34 31   96.23     LegendNANA
15:00 5.0 -4.3 51 0.0 34 28   96.23     LegendNANA
16:00 4.7 -4.6 51 0.0 34 24   96.26     LegendNANA
17:00 3.7 -4.5 55 0.0 34 16   96.23     LegendNANA
18:00 1.1 -4.7 65 0.0 35 9   96.24     LegendNANA
19:00 0.2 -4.9 68 0.0 32 13   96.30     LegendNANA
20:00 -1.0 -5.3 73 0.0 31 12   96.31   -5 LegendNANA
21:00 -2.1 -5.3 79 0.0 29 11   96.33   -6 LegendNANA
22:00 -2.7 -5.2 83 0.0 30 12   96.36   -7 LegendNANA
23:00 -3.1 -5.1 86 0.0 31 10   96.38   -7 LegendNANA

Notes on Data Quality.

Legend

  • E = Estimated
  • M = Missing
  • NA = Not Available*
  • [empty] = Indicates an unobserved value
Date modified: